• In Portugal
  • List of Countries
  • For 7 days
  • Water Temperature
  • Satellite Maps
  • Weather Map
  • Weather Widgets
  • user-avatar
    Login

    Hourly Weather Van

    Today, 23 June, Saturday

    Time Temperature Precipitation Wind Pressure Humidity
    00:00 +19°C° 0 mm 1 mps 618 mmHg 60%
    01:00 +18°C° 0 mm 1 mps 617 mmHg 63%
    02:00 +16°C° 0 mm 1 mps 617 mmHg 65%
    03:00 +14°C° 0 mm 0 mps 617 mmHg 70%
    04:00 +16°C° 0 mm 1 mps 617 mmHg 68%
    05:00 +18°C° 0 mm 1 mps 618 mmHg 66%
    06:00 +19°C° 0 mm 1 mps 618 mmHg 64%
    07:00 +21°C° 0 mm 1 mps 618 mmHg 56%
    08:00 +22°C° 0 mm 1 mps 619 mmHg 48%
    09:00 +24°C° 0 mm 1 mps 619 mmHg 40%
    10:00 +25°C° 0 mm 1 mps 619 mmHg 37%
    11:00 +26°C° 0 mm 2 mps 619 mmHg 33%
    12:00 +27°C° 0 mm 3 mps 619 mmHg 30%
    13:00 +27°C° 0 mm 3 mps 619 mmHg 30%
    14:00 +27°C° 0 mm 3 mps 619 mmHg 29%
    15:00 +27°C° 0 mm 3 mps 619 mmHg 29%
    16:00 +27°C° 0 mm 3 mps 619 mmHg 31%
    17:00 +26°C° 0 mm 3 mps 619 mmHg 33%
    18:00 +26°C° 0 mm 3 mps 619 mmHg 35%
    19:00 +24°C° 0 mm 2 mps 618 mmHg 41%
    20:00 +22°C° 0 mm 1 mps 618 mmHg 48%
    21:00 +20°C° 0 mm 1 mps 618 mmHg 54%
    22:00 +19°C° 0 mm 1 mps 618 mmHg 55%
    23:00 +19°C° 0 mm 1 mps 618 mmHg 56%

    Tomorrow, 24 June, Sunday

    Time Temperature Precipitation Wind Pressure Humidity
    00:00 +18°C° 0 mm 1 mps 618 mmHg 56%
    01:00 +18°C° 0 mm 1 mps 618 mmHg 57%
    02:00 +16°C° 0 mm 1 mps 618 mmHg 58%
    03:00 +16°C° 0 mm 1 mps 618 mmHg 58%
    04:00 +17°C° 0 mm 2 mps 618 mmHg 58%
    05:00 +18°C° 0 mm 2 mps 618 mmHg 57%
    06:00 +18°C° 0 mm 2 mps 619 mmHg 57%
    07:00 +20°C° 0 mm 2 mps 619 mmHg 49%
    08:00 +23°C° 0 mm 2 mps 619 mmHg 41%
    09:00 +25°C° 0 mm 2 mps 620 mmHg 34%
    10:00 +27°C° 0 mm 2 mps 620 mmHg 30%
    11:00 +28°C° 0 mm 2 mps 620 mmHg 27%
    12:00 +29°C° 0 mm 2 mps 620 mmHg 23%
    13:00 +29°C° 0 mm 3 mps 620 mmHg 23%
    14:00 +30°C° 0 mm 3 mps 620 mmHg 22%
    15:00 +30°C° 0 mm 4 mps 620 mmHg 22%
    16:00 +29°C° 0 mm 3 mps 620 mmHg 25%
    17:00 +29°C° 0 mm 2 mps 619 mmHg 27%
    18:00 +28°C° 0 mm 2 mps 619 mmHg 30%
    19:00 +26°C° 0 mm 1 mps 619 mmHg 36%
    20:00 +24°C° 0 mm 1 mps 619 mmHg 41%
    21:00 +19°C° 0 mm 0 mps 618 mmHg 47%
    22:00 +21°C° 0 mm 1 mps 618 mmHg 48%
    23:00 +20°C° 0 mm 1 mps 618 mmHg 49%

    Day after tomorrow, 25 June, Monday

    Time Temperature Precipitation Wind Pressure Humidity
    00:00 +19°C° 0 mm 1 mps 618 mmHg 50%
    01:00 +19°C° 0 mm 1 mps 618 mmHg 51%
    02:00 +18°C° 0 mm 2 mps 618 mmHg 51%
    03:00 +17°C° 0 mm 2 mps 618 mmHg 52%
    04:00 +18°C° 0 mm 2 mps 618 mmHg 52%
    05:00 +18°C° 0 mm 2 mps 619 mmHg 53%
    06:00 +19°C° 0 mm 2 mps 619 mmHg 53%
    07:00 +21°C° 0 mm 2 mps 620 mmHg 46%
    08:00 +24°C° 0 mm 2 mps 620 mmHg 40%
    09:00 +27°C° 0 mm 2 mps 621 mmHg 33%
    10:00 +28°C° 0 mm 2 mps 621 mmHg 29%
    11:00 +29°C° 0 mm 3 mps 621 mmHg 26%
    12:00 +30°C° 0 mm 3 mps 621 mmHg 22%
    13:00 +31°C° 0 mm 3 mps 621 mmHg 22%
    14:00 +31°C° 0 mm 3 mps 621 mmHg 21%
    15:00 +32°C° 0 mm 4 mps 621 mmHg 21%
    16:00 +30°C° 0 mm 3 mps 621 mmHg 23%
    17:00 +30°C° 0 mm 2 mps 620 mmHg 25%
    18:00 +29°C° 0 mm 1 mps 620 mmHg 27%
    19:00 +27°C° 0 mm 1 mps 620 mmHg 33%
    20:00 +24°C° 0 mm 1 mps 619 mmHg 40%
    21:00 +22°C° 0 mm 1 mps 619 mmHg 46%
    22:00 +21°C° 0 mm 1 mps 619 mmHg 47%
    23:00 +21°C° 0 mm 1 mps 619 mmHg 48%

    26 June, Tuesday

    Time Temperature Precipitation Wind Pressure Humidity
    00:00 +20°C° 0 mm 1 mps 619 mmHg 48%
    01:00 +20°C° 0 mm 1 mps 619 mmHg 49%
    02:00 +18°C° 0 mm 2 mps 619 mmHg 50%
    03:00 +18°C° 0 mm 2 mps 619 mmHg 50%
    04:00 +18°C° 0 mm 2 mps 619 mmHg 50%
    05:00 +19°C° 0 mm 2 mps 619 mmHg 51%
    06:00 +20°C° 0 mm 2 mps 619 mmHg 51%
    07:00 +23°C° 0 mm 2 mps 620 mmHg 44%
    08:00 +25°C° 0 mm 2 mps 621 mmHg 37%
    09:00 +28°C° 0 mm 2 mps 621 mmHg 30%
    10:00 +29°C° 0 mm 2 mps 621 mmHg 27%
    11:00 +30°C° 0 mm 2 mps 621 mmHg 23%
    12:00 +33°C° 0 mm 3 mps 622 mmHg 20%
    13:00 +33°C° 0 mm 3 mps 621 mmHg 19%
    14:00 +33°C° 0 mm 3 mps 621 mmHg 19%
    15:00 +34°C° 0 mm 3 mps 621 mmHg 18%
    16:00 +33°C° 0 mm 3 mps 621 mmHg 21%
    17:00 +31°C° 0 mm 2 mps 621 mmHg 23%
    18:00 +30°C° 0 mm 2 mps 620 mmHg 25%
    19:00 +28°C° 0 mm 1 mps 620 mmHg 31%
    20:00 +25°C° 0 mm 1 mps 620 mmHg 37%
    21:00 +20°C° 0 mm 0 mps 619 mmHg 43%
    22:00 +20°C° 0 mm 0 mps 619 mmHg 44%
    23:00 +19°C° 0 mm 0 mps 619 mmHg 45%

    27 June, Wednesday

    Time Temperature Precipitation Wind Pressure Humidity
    00:00 +19°C° 0 mm 0 mps 619 mmHg 46%
    01:00 +18°C° 0 mm 0 mps 619 mmHg 47%
    02:00 +20°C° 0 mm 1 mps 619 mmHg 48%
    03:00 +19°C° 0 mm 1 mps 619 mmHg 49%
    04:00 +20°C° 0 mm 1 mps 619 mmHg 48%
    05:00 +21°C° 0 mm 1 mps 619 mmHg 48%
    06:00 +22°C° 0 mm 1 mps 620 mmHg 48%
    07:00 +24°C° 0 mm 1 mps 620 mmHg 40%
    08:00 +27°C° 0 mm 1 mps 621 mmHg 32%
    09:00 +29°C° 0 mm 1 mps 621 mmHg 24%
    10:00 +30°C° 0 mm 2 mps 622 mmHg 21%
    11:00 +31°C° 0 mm 2 mps 622 mmHg 19%
    12:00 +34°C° 0 mm 2 mps 622 mmHg 16%
    13:00 +34°C° 0 mm 3 mps 622 mmHg 15%
    14:00 +34°C° 0 mm 3 mps 621 mmHg 15%
    15:00 +35°C° 0 mm 3 mps 621 mmHg 14%
    16:00 +34°C° 0 mm 3 mps 621 mmHg 16%
    17:00 +32°C° 0 mm 2 mps 621 mmHg 18%
    18:00 +31°C° 0 mm 2 mps 620 mmHg 20%
    19:00 +28°C° 0 mm 1 mps 620 mmHg 25%
    20:00 +26°C° 0 mm 1 mps 619 mmHg 30%
    21:00 +23°C° 0 mm 1 mps 619 mmHg 35%
    22:00 +22°C° 0 mm 1 mps 619 mmHg 35%
    23:00 +22°C° 0 mm 1 mps 619 mmHg 36%

    28 June, Thursday

    Time Temperature Precipitation Wind Pressure Humidity
    00:00 +21°C° 0 mm 1 mps 619 mmHg 37%
    01:00 +21°C° 0 mm 1 mps 619 mmHg 38%
    02:00 +20°C° 0 mm 1 mps 619 mmHg 39%
    03:00 +20°C° 0 mm 1 mps 619 mmHg 40%
    04:00 +21°C° 0 mm 1 mps 619 mmHg 41%
    05:00 +21°C° 0 mm 2 mps 619 mmHg 43%
    06:00 +21°C° 0 mm 2 mps 620 mmHg 44%
    07:00 +25°C° 0 mm 2 mps 620 mmHg 38%
    08:00 +27°C° 0 mm 2 mps 621 mmHg 32%
    09:00 +30°C° 0 mm 2 mps 622 mmHg 26%
    10:00 +31°C° 0 mm 3 mps 622 mmHg 23%
    11:00 +34°C° 0 mm 3 mps 622 mmHg 21%
    12:00 +35°C° 0 mm 3 mps 622 mmHg 18%
    13:00 +35°C° 0 mm 3 mps 622 mmHg 18%
    14:00 +36°C° 0 mm 3 mps 621 mmHg 17%
    15:00 +36°C° 0 mm 3 mps 621 mmHg 17%
    16:00 +35°C° 0 mm 3 mps 621 mmHg 19%
    17:00 +34°C° 0 mm 3 mps 621 mmHg 21%
    18:00 +32°C° 0 mm 2 mps 621 mmHg 23%
    19:00 +30°C° 0 mm 2 mps 620 mmHg 27%
    20:00 +27°C° 0 mm 2 mps 620 mmHg 32%
    21:00 +25°C° 0 mm 1 mps 620 mmHg 36%
    22:00 +24°C° 0 mm 2 mps 620 mmHg 37%
    23:00 +24°C° 0 mm 2 mps 620 mmHg 37%
    Show more